Flag for Uruguay Weather past 2 weeks in Canelones, Uruguay

Now
64 °F

Passing clouds.


Feels Like: 64 °F
Forecast: 56 / 69 °F
Wind: 9 mph from South

Location: Carrasco

Current Time: Mar 27, 2015 at 12:02:38 AM

Latest Report: Mar 26, 2015 at 11:00 PM


Visibility: N/A

Pressure: 30.09 "Hg

Humidity: 68%

Dew point: 54 °F

Location of CanelonesLocation

Historic Weather in Canelones — Graph

°F

Canelones temperature yesterday

Maximum temperature yesterday: 70 °F (at 1:00 PM)
Minimum temperature yesterday: 61 °F (at 6:00 AM)
Average temperature yesterday: 65 °F

Past Weeks' High & Low Weather Summary

 TemperatureHumidityPressure
High88 °F (Mar 13, 3:00 PM)100% (Mar 12, 7:00 AM)30.21 "Hg (Mar 12, 7:00 AM)
Low52 °F (Mar 24, 4:00 AM)33% (Mar 13, 3:00 PM)29.74 "Hg (Mar 20, 2:00 PM)
Average69 °F72%30.00 "Hg
* Reported Mar 11 11:00 PM — Mar 26 11:00 PM, Canelones, Weather by CustomWeather, © 2015

Note: Actual official high and low records may vary slightly from our data, if they occured in-between our weather recording intervals... More about our weather records

Advertising

Canelones weather history for previous 24 hours

 ConditionsComfort  
Time TempWeatherWind HumidityBarometerVisibility
11:00 PM
Thu, Mar 26
64 °FPassing clouds.9 mph68%30.09 "HgN/A
10:00 PM64 °FPassing clouds.10 mph68%30.07 "HgN/A
9:00 PM64 °FPassing clouds.10 mph64%30.07 "HgN/A
8:00 PM64 °FPassing clouds.10 mph68%30.07 "HgN/A
7:00 PM64 °FPassing clouds.10 mph68%30.07 "HgN/A
6:00 PM66 °FPassing clouds.12 mph64%30.07 "HgN/A
5:00 PM66 °FScattered clouds.12 mph60%30.04 "HgN/A
4:00 PM68 °FScattered clouds.16 mph53%30.04 "HgN/A
3:00 PM68 °FBroken clouds.12 mph60%30.07 "HgN/A
2:00 PM70 °FBroken clouds.16 mph57%30.07 "HgN/A
1:00 PM70 °FBroken clouds.16 mph57%30.07 "HgN/A
12:00 PM66 °FBroken clouds.15 mph64%30.07 "HgN/A
11:00 AM68 °FPartly sunny.15 mph53%30.07 "HgN/A
10:00 AM66 °FPartly sunny.14 mph56%30.07 "HgN/A
9:00 AM64 °FPartly sunny.12 mph64%30.07 "HgN/A
8:00 AM63 °FPartly sunny.12 mph73%30.04 "HgN/A
7:00 AM61 °FScattered clouds.13 mph68%30.01 "HgN/A
6:00 AM61 °FScattered clouds.8 mph68%30.01 "HgN/A
5:00 AM63 °FPassing clouds.9 mph73%30.01 "HgN/A
4:00 AM63 °FPassing clouds.13 mph73%30.04 "HgN/A
3:00 AM63 °FPassing clouds.16 mph73%30.04 "HgN/A
2:00 AM63 °FPassing clouds.9 mph73%30.04 "HgN/A
1:00 AM63 °FPassing clouds.9 mph73%30.04 "HgN/A
12:00 AM63 °FPassing clouds.7 mph68%30.04 "HgN/A
Weather by CustomWeather, © 2015

See weather overviewHow to use our weather pages